• In Uzbekistan
  • List of Countries
  • For 7 days
  • Water Temperature
  • Satellite Maps
  • Weather Map
  • Weather Widgets
  • user-avatar
    Login

    Hourly Weather Lezhe

    Today, 23 September, Saturday

    Time Temperature Precipitation Wind Pressure Humidity
    00:00 +12°C° 0 mm 2 mps 741 mmHg 73%
    01:00 +12°C° 0 mm 2 mps 741 mmHg 72%
    02:00 +12°C° 0 mm 2 mps 741 mmHg 72%
    03:00 +12°C° 0 mm 2 mps 741 mmHg 71%
    04:00 +12°C° 0 mm 2 mps 741 mmHg 71%
    05:00 +13°C° 0 mm 2 mps 741 mmHg 67%
    06:00 +14°C° 0 mm 2 mps 741 mmHg 63%
    07:00 +15°C° 0 mm 2 mps 741 mmHg 60%
    08:00 +18°C° 0 mm 1 mps 741 mmHg 54%
    09:00 +20°C° 0 mm 1 mps 741 mmHg 48%
    10:00 +22°C° 0 mm 1 mps 741 mmHg 42%
    11:00 +23°C° 0 mm 1 mps 741 mmHg 41%
    12:00 +23°C° 0 mm 2 mps 741 mmHg 41%
    13:00 +24°C° 0 mm 2 mps 740 mmHg 41%
    14:00 +23°C° 0 mm 2 mps 740 mmHg 45%
    15:00 +23°C° 0 mm 2 mps 740 mmHg 49%
    16:00 +21°C° 0 mm 2 mps 740 mmHg 53%
    17:00 +19°C° 0 mm 2 mps 740 mmHg 62%
    18:00 +18°C° 0 mm 1 mps 740 mmHg 71%
    19:00 +15°C° 0 mm 1 mps 740 mmHg 81%
    20:00 +15°C° 0 mm 1 mps 740 mmHg 81%
    21:00 +15°C° 0 mm 1 mps 740 mmHg 81%
    22:00 +15°C° 0 mm 1 mps 741 mmHg 81%
    23:00 +14°C° 0 mm 1 mps 740 mmHg 78%

    Tomorrow, 24 September, Sunday

    Time Temperature Precipitation Wind Pressure Humidity
    00:00 +14°C° 0 mm 1 mps 740 mmHg 75%
    01:00 +14°C° 0 mm 1 mps 740 mmHg 72%
    02:00 +14°C° 0 mm 1 mps 740 mmHg 69%
    03:00 +15°C° 0 mm 1 mps 740 mmHg 66%
    04:00 +15°C° 0 mm 1 mps 739 mmHg 62%
    05:00 +16°C° 0 mm 1 mps 740 mmHg 60%
    06:00 +16°C° 0 mm 1 mps 740 mmHg 58%
    07:00 +18°C° 0 mm 1 mps 740 mmHg 55%
    08:00 +20°C° 0 mm 1 mps 740 mmHg 50%
    09:00 +22°C° 0 mm 1 mps 740 mmHg 45%
    10:00 +24°C° 0 mm 1 mps 740 mmHg 39%
    11:00 +24°C° 0 mm 1 mps 739 mmHg 39%
    12:00 +25°C° 0 mm 2 mps 739 mmHg 38%
    13:00 +26°C° 0 mm 2 mps 739 mmHg 38%
    14:00 +25°C° 0 mm 2 mps 739 mmHg 41%
    15:00 +24°C° 0 mm 2 mps 738 mmHg 44%
    16:00 +24°C° 0 mm 2 mps 738 mmHg 47%
    17:00 +22°C° 0 mm 1 mps 738 mmHg 53%
    18:00 +20°C° 0 mm 1 mps 739 mmHg 60%
    19:00 +18°C° 0 mm 1 mps 739 mmHg 67%
    20:00 +18°C° 0 mm 1 mps 739 mmHg 67%
    21:00 +18°C° 0 mm 1 mps 739 mmHg 67%
    22:00 +16°C° 0 mm 1 mps 739 mmHg 66%
    23:00 +16°C° 0 mm 1 mps 739 mmHg 65%

    Day after tomorrow, 25 September, Monday

    Time Temperature Precipitation Wind Pressure Humidity
    00:00 +16°C° 0 mm 2 mps 739 mmHg 65%
    01:00 +16°C° 0 mm 2 mps 739 mmHg 64%
    02:00 +16°C° 0 mm 2 mps 739 mmHg 63%
    03:00 +16°C° 0 mm 2 mps 738 mmHg 62%
    04:00 +16°C° 0 mm 2 mps 738 mmHg 61%
    05:00 +17°C° 0 mm 2 mps 738 mmHg 61%
    06:00 +17°C° 0 mm 2 mps 738 mmHg 61%
    07:00 +18°C° 0 mm 2 mps 738 mmHg 61%
    08:00 +19°C° 0.1 mm 2 mps 738 mmHg 57%
    09:00 +20°C° 0.1 mm 2 mps 738 mmHg 54%
    10:00 +23°C° 0.1 mm 2 mps 738 mmHg 50%
    11:00 +23°C° 0.2 mm 2 mps 738 mmHg 50%
    12:00 +23°C° 0.2 mm 2 mps 738 mmHg 51%
    13:00 +23°C° 0.2 mm 2 mps 738 mmHg 51%
    14:00 +23°C° 0.3 mm 2 mps 738 mmHg 54%
    15:00 +21°C° 0.3 mm 2 mps 738 mmHg 57%
    16:00 +22°C° 0.3 mm 1 mps 738 mmHg 61%
    17:00 +20°C° 0.1 mm 1 mps 738 mmHg 64%
    18:00 +18°C° 0.1 mm 2 mps 738 mmHg 68%
    19:00 +17°C° 0.1 mm 2 mps 739 mmHg 72%
    20:00 +16°C° 0.1 mm 2 mps 739 mmHg 73%
    21:00 +16°C° 0.1 mm 2 mps 739 mmHg 74%
    22:00 +16°C° 0.1 mm 2 mps 739 mmHg 75%
    23:00 +15°C° 0 mm 2 mps 739 mmHg 75%

    26 September, Tuesday

    Time Temperature Precipitation Wind Pressure Humidity
    00:00 +15°C° 0 mm 2 mps 739 mmHg 75%
    01:00 +15°C° 0 mm 2 mps 738 mmHg 75%
    02:00 +15°C° 0 mm 2 mps 738 mmHg 76%
    03:00 +14°C° 0 mm 2 mps 738 mmHg 76%
    04:00 +14°C° 0 mm 2 mps 738 mmHg 77%
    05:00 +15°C° 0 mm 2 mps 738 mmHg 75%
    06:00 +16°C° 0 mm 2 mps 738 mmHg 73%
    07:00 +16°C° 0 mm 2 mps 738 mmHg 72%
    08:00 +18°C° 0 mm 2 mps 739 mmHg 65%
    09:00 +21°C° 0 mm 1 mps 739 mmHg 59%
    10:00 +23°C° 0 mm 1 mps 739 mmHg 52%
    11:00 +23°C° 0.1 mm 2 mps 739 mmHg 51%
    12:00 +24°C° 0.1 mm 2 mps 738 mmHg 49%
    13:00 +24°C° 0.1 mm 2 mps 738 mmHg 48%
    14:00 +24°C° 0.1 mm 2 mps 738 mmHg 50%
    15:00 +23°C° 0.1 mm 2 mps 738 mmHg 52%
    16:00 +22°C° 0.1 mm 3 mps 738 mmHg 54%
    17:00 +20°C° 0.1 mm 2 mps 738 mmHg 60%
    18:00 +19°C° 0.1 mm 2 mps 739 mmHg 67%
    19:00 +17°C° 0.1 mm 2 mps 739 mmHg 74%
    20:00 +16°C° 0 mm 2 mps 739 mmHg 75%
    21:00 +16°C° 0 mm 2 mps 739 mmHg 76%
    22:00 +16°C° 0 mm 1 mps 739 mmHg 77%
    23:00 +15°C° 0 mm 2 mps 739 mmHg 78%

    27 September, Wednesday

    Time Temperature Precipitation Wind Pressure Humidity
    00:00 +15°C° 0 mm 2 mps 739 mmHg 78%
    01:00 +15°C° 0 mm 2 mps 739 mmHg 79%
    02:00 +15°C° 0 mm 2 mps 739 mmHg 79%
    03:00 +15°C° 0 mm 2 mps 739 mmHg 80%
    04:00 +14°C° 0 mm 2 mps 739 mmHg 80%
    05:00 +15°C° 0 mm 2 mps 739 mmHg 77%
    06:00 +16°C° 0 mm 2 mps 739 mmHg 75%
    07:00 +17°C° 0 mm 2 mps 740 mmHg 72%
    08:00 +19°C° 0 mm 2 mps 740 mmHg 65%
    09:00 +22°C° 0 mm 1 mps 740 mmHg 57%
    10:00 +24°C° 0 mm 1 mps 740 mmHg 50%
    11:00 +25°C° 0 mm 1 mps 740 mmHg 48%
    12:00 +25°C° 0 mm 2 mps 740 mmHg 45%
    13:00 +26°C° 0 mm 2 mps 739 mmHg 43%
    14:00 +25°C° 0.1 mm 2 mps 739 mmHg 46%
    15:00 +25°C° 0.1 mm 2 mps 739 mmHg 48%
    16:00 +24°C° 0.1 mm 2 mps 739 mmHg 51%
    17:00 +21°C° 0.1 mm 2 mps 740 mmHg 57%
    18:00 +20°C° 0.1 mm 1 mps 740 mmHg 63%
    19:00 +19°C° 0.1 mm 1 mps 740 mmHg 69%
    20:00 +18°C° 0 mm 1 mps 740 mmHg 70%
    21:00 +18°C° 0 mm 1 mps 740 mmHg 71%
    22:00 +18°C° 0 mm 1 mps 741 mmHg 72%
    23:00 +16°C° 0.1 mm 1 mps 741 mmHg 73%

    28 September, Thursday

    Time Temperature Precipitation Wind Pressure Humidity
    00:00 +16°C° 0.1 mm 2 mps 741 mmHg 74%
    01:00 +16°C° 0.1 mm 2 mps 741 mmHg 75%
    02:00 +16°C° 0.1 mm 2 mps 741 mmHg 76%
    03:00 +16°C° 0.1 mm 2 mps 741 mmHg 78%
    04:00 +16°C° 0.1 mm 2 mps 740 mmHg 79%
    05:00 +16°C° 0.1 mm 2 mps 741 mmHg 77%
    06:00 +17°C° 0.1 mm 2 mps 741 mmHg 75%
    07:00 +18°C° 0.1 mm 2 mps 741 mmHg 74%
    08:00 +19°C° 0.1 mm 2 mps 741 mmHg 67%
    09:00 +21°C° 0.1 mm 2 mps 741 mmHg 60%
    10:00 +24°C° 0.1 mm 2 mps 741 mmHg 53%
    11:00 +24°C° 0.4 mm 2 mps 741 mmHg 52%
    12:00 +25°C° 0.4 mm 2 mps 740 mmHg 51%
    13:00 +25°C° 0.4 mm 3 mps 740 mmHg 49%
    14:00 +24°C° 0.8 mm 3 mps 740 mmHg 54%
    15:00 +22°C° 0.8 mm 3 mps 740 mmHg 59%
    16:00 +23°C° 0.8 mm 2 mps 740 mmHg 64%
    17:00 +20°C° 0.7 mm 2 mps 740 mmHg 69%
    18:00 +19°C° 0.7 mm 2 mps 740 mmHg 74%
    19:00 +18°C° 0.7 mm 2 mps 740 mmHg 79%
    20:00 +18°C° 1.1 mm 2 mps 740 mmHg 81%
    21:00 +17°C° 1.1 mm 3 mps 740 mmHg 82%
    22:00 +17°C° 1.1 mm 3 mps 740 mmHg 84%
    23:00 +17°C° 0.8 mm 3 mps 740 mmHg 85%
    Show more